User: anonymous
Location: NJAA Observatory
(40.6819°N, 74.8979°W)
Time: 21:51:22
(UTC-04:00)
Language:

Cosmos 220 Rocket - Orbit

View from above orbital plane
View from above orbital plane
View from above satellite
View from above satellite

Ground track
Ground track

The orbit data is extracted from the following two-line orbital elements,

1 03230U 68040B   14202.55820486  .00000312  00000-0  38011-4 0  3002
2 03230 074.0357 205.3352 0030145 077.7831 282.6723 14.87821465477466
Epoch (UTC): 21 July 2014 13:23:48
Eccentricity: 0.0030145
inclination: 74.0357°
perigee height: 583 km
apogee height: 626 km
right ascension of ascending node: 205.3352°
argument of perigee: 77.7831°
revolutions per day: 14.87821465
mean anomaly at epoch: 282.6723°
orbit number at epoch: 47746

The dashed part of the orbit path shows where the satellite is in the earth's shadow,  

DLR